Location: Newark
(21.1200°N, 73.4000°E)
Time: 00:56:51
(UTC+00:00)

SR - Pass Details

Date: 01 February 2020
Orbit: 575 x 881 km, 66.7° (Epoch: 20 February)

Event Time Altitude Azimuth Distance (km) Brightness Sun altitude
Rises 02:13:40 0° 322° (NW) 3,194 ? 5.7°
Reaches altitude 10° 02:16:27 10° 310° (NW) 2,211 ? 6.4°
Maximum altitude 02:20:35 26° 254° (WSW) 1,324 ? 7.3°
Drops below altitude 10° 02:24:27 10° 197° (SSW) 2,044 ? 8.1°
Sets 02:26:56 0° 184° (S) 2,905 ? 8.6°
